Temp
83 83 82 82 82 82 81 80 80 80 80 81 80 80 80 81 82 81 81 81 81 81 81 81 81 80 81 80 80 79 79 79 80 80 79 79 78 79 78 79 78 77
82 82 82 82 81 81 81 81 80 80 79 80 81 81 81 81 81 81 81 81 81 81 81 81 80 80 80 80 80 79 79 79 79 80 78 78 78 79 79 79 78 79
82 82 81 81 81 81 81 81 80 80 80 81 81 81 81 81 81 81 81 81 80 81 80 80 80 80 80 80 80 79 79 78 78 80 78 78 79 78 78 80 79 78
81 81 81 82 82 81 81 79 79 79 81 80 80 81 81 81 81 80 80 80 80 80 80 80 80 81 80 80 80 79 79 79 80 80 79 78 78 78 78 79 79 79
80 80 81 81 81 81 80 79 80 79 80 80 81 80 79 79 79 80 80 79 79 80 80 79 80 80 80 80 80 79 79 79 80 79 78 78 79 78 79 78 78 78
80 80 79 80 80 80 79 79 79 79 80 80 79 80 79 79 79 79 79 79 80 80 79 80 79 80 81 80 79 79 79 80 80 79 78 78 79 80 79 79 78 77
80 79 79 80 80 80 79 78 78 79 80 80 79 77 78 78 77 77 78 78 79 78 79 78 78 79 80 79 78 78 78 78 79 79 78 78 78 78 80 78 77 77
81 80 80 80 79 78 77 77 78 79 79 78 77 77 77 77 76 77 77 77 78 77 77 78 79 79 80 79 78 78 78 79 79 78 78 78 78 77 78 79 78 77
80 80 79 79 78 78 78 78 78 77 76 76 76 76 75 76 76 76 76 76 76 76 77 77 77 78 78 78 78 78 78 79 79 78 78 77 77 78 78 79 78 77
78 77 78 79 78 76 75 74 73 75 75 74 74 75 73 74 75 75 75 74 75 76 76 76 76 77 77 78 78 78 78 78 78 78 78 78 78 78 79 78 78 77
77 78 78 78 78 77 76 75 75 75 73 73 73 72 72 72 72 74 74 74 75 75 76 76 77 77 76 77 78 78 78 78 78 78 78 78 78 78 77 78 78 78
77 80 80 77 77 76 76 76 78 75 73 72 72 71 71 71 72 72 73 74 75 76 77 77 77 77 76 77 79 79 78 78 78 77 78 78 78 78 78 78 78 78
80 80 76 75 75 74 73 73 74 75 73 71 70 70 69 69 70 71 72 74 75 76 76 77 77 77 76 77 78 78 77 77 77 77 77 78 78 79 80 79 79 78
80 75 75 75 74 72 72 74 73 73 71 70 69 69 69 69 69 70 71 74 75 75 75 76 76 76 76 76 77 77 77 77 77 77 78 78 78 79 80 80 79 79
78 77 76 76 74 73 72 71 70 69 68 69 69 68 68 69 71 71 72 72 73 74 75 76 76 76 77 77 76 77 77 78 78 78 78 78 78 79 79 78 78 79
77 77 76 75 73 73 72 70 70 68 68 68 69 69 69 69 71 72 73 73 73 73 74 75 75 75 71 67 69 77 78 78 77 77 77 77 77 77 77 78 79 80
77 76 76 74 74 74 72 72 70 67 66 67 68 69 70 71 71 72 73 73 73 74 73 73 73 73 67 64 64 66 74 77 77 77 77 77 77 76 76 77 79 79
76 75 75 74 74 73 72 71 69 67 67 68 68 69 70 71 70 71 72 73 73 74 74 73 73 69 64 63 64 64 66 73 76 76 76 76 76 76 77 77 77 77
75 75 74 73 72 70 70 69 68 68 68 68 67 68 69 68 69 70 70 70 71 71 71 72 73 68 64 63 63 63 63 67 74 75 75 75 76 76 77 76 76 74
74 73 71 69 68 69 68 69 69 68 68 68 68 67 67 67 68 69 69 69 69 69 69 71 71 67 63 62 62 62 62 64 72 72 73 74 75 75 76 75 75 73
73 71 68 68 69 71 71 70 69 70 70 70 70 68 67 67 69 69 70 70 69 69 69 69 72 65 62 60 59 59 59 64 70 71 72 72 73 74 74 73 72 72
73 70 68 69 70 70 70 71 71 71 71 71 71 70 70 71 71 71 68 68 70 71 71 70 73 64 61 60 59 58 59 68 71 71 71 72 72 72 72 70 69 70
74 72 71 71 71 71 71 72 72 71 72 72 71 72 72 71 72 72 71 71 71 71 70 70 71 63 58 57 57 57 61 70 70 70 70 70 70 70 70 69 69 70
75 73 72 73 72 72 72 72 72 73 73 72 71 72 73 74 74 73 72 73 72 72 75 74 75 65 55 56 56 57 62 70 70 69 68 67 68 69 68 68 69 66
75 74 74 73 72 73 73 72 72 72 72 73 74 74 75 75 75 75 75 73 75 74 69 73 74 67 56 56 55 57 65 70 68 65 64 65 67 68 68 69 69 66
75 74 74 74 74 74 74 73 72 73 73 74 75 76 75 76 77 77 75 75 75 72 70 72 71 71 66 55 59 60 61 67 66 65 65 66 68 68 69 69 68 68
MSLP
1013.92 1014.16 1014.56 1014.96 1015.24 1015.36 1015.68 1016.04 1016.12 1016.32 1016.48 1016.48 1016.72 1016.80 1016.88 1016.88 1016.96 1017.24 1017.44 1017.56 1017.72 1017.92 1018.12 1018.32 1018.48 1018.68 1018.76 1018.88 1019.00 1019.16 1019.36 1019.44 1019.48 1019.52 1019.64 1019.76 1019.88 1019.88 1020.00 1019.92 1019.88 1019.84
1013.68 1013.92 1014.20 1014.52 1014.88 1015.04 1015.24 1015.40 1015.72 1015.92 1016.12 1016.20 1016.20 1016.28 1016.36 1016.52 1016.68 1016.88 1017.20 1017.48 1017.64 1017.76 1017.88 1018.08 1018.28 1018.44 1018.60 1018.72 1018.84 1019.04 1019.20 1019.28 1019.44 1019.28 1019.60 1019.72 1019.72 1019.72 1019.80 1019.76 1019.72 1019.60
1013.40 1013.72 1014.00 1014.36 1014.60 1014.88 1015.00 1015.12 1015.32 1015.52 1015.76 1015.88 1015.96 1016.08 1016.28 1016.32 1016.56 1016.68 1016.92 1017.20 1017.48 1017.60 1017.76 1017.84 1018.04 1018.20 1018.36 1018.52 1018.60 1018.80 1018.92 1019.12 1019.28 1019.16 1019.36 1019.52 1019.48 1019.64 1019.60 1019.56 1019.60 1019.60
1013.16 1013.36 1013.68 1013.96 1014.16 1014.44 1014.60 1014.96 1015.20 1015.40 1015.56 1015.92 1016.04 1016.00 1016.12 1016.24 1016.40 1016.64 1016.80 1017.00 1017.24 1017.44 1017.48 1017.64 1017.80 1017.92 1018.12 1018.24 1018.36 1018.52 1018.60 1018.76 1018.76 1018.88 1019.12 1019.16 1019.24 1019.28 1019.36 1019.32 1019.40 1019.40
1012.88 1013.20 1013.36 1013.60 1013.76 1014.00 1014.32 1014.72 1015.00 1015.20 1015.40 1015.56 1015.76 1015.92 1016.16 1016.36 1016.48 1016.56 1016.72 1016.92 1017.04 1017.24 1017.36 1017.48 1017.56 1017.72 1017.88 1018.00 1018.12 1018.36 1018.40 1018.52 1018.52 1018.68 1018.92 1019.04 1018.96 1019.04 1019.00 1019.12 1019.24 1019.32
1012.40 1012.64 1012.96 1013.24 1013.48 1013.80 1014.28 1014.68 1014.92 1015.16 1015.40 1015.64 1015.84 1015.96 1016.24 1016.36 1016.56 1016.64 1016.80 1016.96 1017.00 1017.08 1017.20 1017.28 1017.40 1017.44 1017.56 1017.76 1017.96 1018.16 1018.20 1018.32 1018.28 1018.48 1018.76 1018.88 1018.76 1018.64 1018.68 1018.80 1018.96 1019.08
1012.24 1012.48 1012.76 1012.96 1013.40 1013.80 1014.40 1014.88 1015.24 1015.44 1015.68 1015.76 1015.88 1016.20 1016.28 1016.64 1016.84 1016.88 1016.92 1016.96 1017.00 1017.08 1017.16 1017.24 1017.24 1017.24 1017.28 1017.52 1017.80 1018.04 1018.08 1018.12 1018.16 1018.32 1018.56 1018.60 1018.60 1018.56 1018.40 1018.52 1018.64 1018.76
1011.84 1012.24 1012.64 1013.12 1013.68 1014.28 1015.00 1015.60 1015.76 1015.96 1016.00 1016.20 1016.40 1016.32 1016.36 1016.64 1016.80 1016.84 1016.92 1017.00 1017.04 1017.16 1017.20 1017.16 1017.12 1017.12 1017.12 1017.28 1017.60 1017.80 1017.92 1017.84 1017.96 1018.12 1018.32 1018.40 1018.40 1018.52 1018.32 1018.20 1018.28 1018.48
1012.08 1012.76 1013.12 1013.64 1014.24 1014.68 1015.12 1015.36 1015.56 1015.80 1015.92 1016.32 1016.64 1016.60 1016.60 1016.60 1016.72 1016.88 1017.04 1017.16 1017.20 1017.20 1017.24 1017.24 1017.20 1017.16 1017.04 1017.12 1017.28 1017.48 1017.60 1017.60 1017.64 1017.84 1018.04 1018.24 1018.32 1018.24 1018.08 1017.96 1018.08 1018.12
1012.16 1012.72 1013.16 1013.56 1013.92 1014.08 1014.24 1014.24 1014.28 1014.72 1015.16 1015.72 1016.12 1016.52 1016.80 1016.64 1016.72 1016.96 1017.20 1017.36 1017.40 1017.32 1017.28 1017.28 1017.28 1017.12 1016.96 1016.88 1017.00 1017.08 1017.24 1017.40 1017.44 1017.56 1017.72 1017.88 1017.96 1017.92 1017.80 1017.76 1017.80 1017.84
1011.52 1011.56 1011.84 1012.40 1012.88 1013.24 1013.56 1013.76 1014.04 1014.28 1014.64 1015.00 1015.60 1016.32 1016.56 1016.80 1016.96 1017.04 1017.24 1017.36 1017.44 1017.32 1017.24 1017.16 1017.04 1016.96 1016.92 1016.80 1016.72 1016.72 1016.88 1017.04 1017.20 1017.32 1017.44 1017.52 1017.56 1017.56 1017.52 1017.52 1017.48 1017.48
1009.92 1010.16 1010.92 1012.08 1012.88 1012.84 1012.88 1013.16 1013.44 1013.92 1014.36 1014.76 1015.32 1015.96 1016.16 1016.44 1016.84 1017.00 1017.08 1017.12 1017.08 1016.96 1016.88 1016.88 1016.76 1016.80 1016.84 1016.76 1016.60 1016.48 1016.64 1016.80 1016.96 1017.08 1017.12 1017.16 1017.16 1017.12 1017.12 1017.04 1017.12 1017.12
1009.32 1009.92 1010.88 1011.16 1011.44 1012.24 1013.00 1013.28 1013.44 1013.76 1014.28 1014.92 1015.44 1015.84 1016.08 1016.44 1016.60 1016.68 1016.72 1016.80 1016.80 1016.68 1016.60 1016.52 1016.44 1016.48 1016.60 1016.68 1016.60 1016.48 1016.48 1016.64 1016.80 1016.84 1016.88 1016.84 1016.76 1016.68 1016.60 1016.64 1016.68 1016.72
1009.32 1009.92 1010.12 1010.16 1010.96 1011.88 1012.80 1013.44 1013.56 1013.68 1014.00 1014.68 1015.32 1015.76 1015.96 1016.04 1016.20 1016.24 1016.12 1016.20 1016.40 1016.40 1016.32 1016.20 1016.16 1016.16 1016.24 1016.40 1016.44 1016.36 1016.36 1016.44 1016.52 1016.56 1016.56 1016.52 1016.44 1016.32 1016.28 1016.28 1016.28 1016.24
1009.28 1009.64 1010.08 1010.60 1011.04 1011.36 1011.88 1013.08 1013.96 1014.44 1014.48 1014.80 1015.44 1015.36 1015.04 1014.64 1015.00 1015.60 1015.80 1015.84 1015.92 1016.00 1016.04 1016.00 1015.92 1015.84 1015.84 1016.00 1016.16 1016.20 1016.12 1016.20 1016.28 1016.32 1016.32 1016.36 1016.24 1016.12 1016.00 1016.00 1015.96 1015.88
1009.04 1009.60 1009.96 1010.24 1010.60 1011.12 1011.72 1012.36 1013.00 1013.44 1014.32 1014.08 1014.12 1014.40 1014.48 1014.60 1015.12 1015.52 1015.64 1015.68 1015.72 1015.76 1015.80 1015.84 1015.76 1015.56 1015.48 1015.60 1015.76 1015.76 1015.80 1015.88 1016.00 1016.08 1016.12 1016.12 1016.16 1016.08 1015.92 1015.72 1015.60 1015.48
1009.08 1009.48 1009.72 1010.28 1010.64 1011.04 1011.44 1011.80 1012.44 1013.68 1014.36 1014.40 1014.36 1014.48 1014.84 1015.00 1015.00 1015.16 1015.28 1015.28 1015.28 1015.40 1015.56 1015.56 1015.48 1015.32 1015.28 1015.44 1015.60 1015.68 1015.68 1015.68 1015.76 1015.80 1015.76 1015.84 1015.88 1015.88 1015.80 1015.52 1015.24 1015.16
1009.04 1009.52 1010.08 1010.68 1011.28 1012.08 1012.92 1013.44 1013.52 1013.72 1014.28 1014.60 1014.72 1014.88 1014.92 1015.12 1015.40 1015.24 1015.00 1014.96 1015.00 1014.96 1015.04 1015.08 1015.12 1015.04 1015.12 1015.20 1015.32 1015.48 1015.64 1015.60 1015.52 1015.56 1015.52 1015.52 1015.48 1015.44 1015.28 1015.16 1015.08 1015.04
1009.12 1009.72 1010.40 1011.04 1012.00 1012.96 1013.32 1013.12 1012.32 1012.80 1013.44 1013.68 1013.92 1013.88 1014.00 1014.60 1015.00 1015.16 1015.00 1014.84 1014.76 1014.60 1014.76 1014.76 1014.92 1014.88 1015.00 1015.00 1015.04 1015.16 1015.32 1015.48 1015.40 1015.24 1015.24 1015.20 1015.08 1015.00 1014.92 1014.88 1014.88 1014.96
1009.20 1009.92 1010.80 1011.40 1011.52 1011.24 1011.04 1011.20 1011.84 1012.32 1012.64 1012.80 1012.88 1013.00 1013.16 1013.36 1013.88 1014.28 1014.32 1014.56 1014.56 1014.40 1014.48 1014.52 1014.56 1014.64 1014.80 1014.80 1014.80 1015.00 1015.44 1015.88 1015.64 1015.44 1015.28 1015.16 1015.00 1014.88 1014.80 1014.72 1014.72 1014.92
1009.16 1009.80 1010.52 1010.68 1010.56 1010.76 1011.04 1011.44 1011.68 1011.96 1012.08 1012.04 1012.16 1012.40 1012.48 1012.60 1012.84 1013.32 1013.56 1013.76 1013.96 1014.12 1014.16 1014.08 1014.04 1014.16 1014.52 1014.88 1015.20 1015.28 1015.24 1015.32 1015.24 1015.12 1015.00 1014.88 1014.76 1014.72 1014.64 1014.68 1014.76 1014.84
1008.76 1009.36 1009.80 1010.16 1010.40 1010.60 1010.80 1010.88 1010.92 1011.00 1011.28 1011.52 1011.80 1012.00 1012.08 1012.24 1012.72 1013.04 1013.56 1013.96 1013.52 1013.68 1013.60 1013.68 1013.72 1014.00 1014.40 1014.64 1014.80 1014.88 1014.92 1014.84 1014.68 1014.68 1014.56 1014.56 1014.52 1014.44 1014.40 1014.40 1014.48 1014.60
1008.12 1008.68 1009.32 1009.80 1010.00 1010.16 1010.36 1010.40 1010.56 1010.96 1011.24 1011.52 1011.96 1012.12 1012.36 1012.64 1012.96 1013.28 1013.40 1013.68 1013.28 1013.36 1013.32 1013.40 1013.72 1014.00 1014.28 1014.44 1014.40 1014.40 1014.60 1014.44 1014.20 1014.08 1014.08 1014.16 1014.20 1014.16 1014.24 1014.36 1014.40 1014.48
1007.92 1008.44 1008.96 1009.20 1009.40 1009.72 1009.92 1010.20 1010.52 1010.76 1011.04 1011.28 1011.68 1011.88 1012.12 1012.28 1012.64 1013.00 1013.04 1012.72 1012.80 1013.04 1012.72 1012.92 1013.20 1013.60 1013.96 1014.08 1013.92 1013.92 1013.80 1013.72 1013.68 1013.72 1013.76 1013.84 1013.92 1014.00 1014.12 1014.28 1014.32 1014.52
1007.72 1008.12 1008.44 1008.72 1009.04 1009.32 1009.60 1010.04 1010.32 1010.52 1010.76 1011.00 1011.16 1011.32 1011.52 1011.76 1012.04 1012.20 1012.16 1012.08 1012.24 1012.32 1012.20 1012.44 1012.76 1013.12 1013.36 1013.32 1013.44 1013.20 1012.92 1012.96 1013.20 1013.48 1013.64 1013.80 1013.88 1013.92 1014.04 1014.20 1014.28 1014.52
1007.44 1007.80 1008.08 1008.40 1008.80 1009.08 1009.36 1009.68 1010.00 1010.32 1010.56 1010.76 1010.92 1010.96 1011.16 1011.24 1011.36 1011.36 1011.52 1011.64 1011.80 1012.00 1012.16 1012.16 1012.40 1012.68 1012.92 1012.80 1012.40 1012.24 1012.32 1012.44 1012.68 1012.96 1013.36 1013.56 1013.60 1013.76 1014.00 1014.08 1014.20 1014.40
Wind_Speed
10 9 9 8 7 7 8 8 8 9 8 8 9 9 9 8 8 8 9 8 9 9 8 7 7 6 6 5 5 4 4 5 5 4 5 5 6 6 6 6 6 5
11 10 8 8 7 7 7 8 9 9 9 9 8 8 7 8 9 9 9 9 9 9 8 8 7 7 7 6 5 4 4 4 5 3 4 5 6 6 7 8 7 6
11 10 10 10 9 10 10 9 9 9 9 9 8 7 7 8 9 9 9 9 9 10 9 8 8 7 7 6 5 4 4 4 5 4 3 4 4 5 6 7 6 7
11 11 10 10 10 10 9 9 8 7 8 7 8 8 7 7 8 9 9 9 9 9 9 9 8 8 7 6 5 4 4 4 5 4 4 3 4 4 5 5 5 5
11 10 10 10 10 10 9 10 11 10 10 9 8 7 6 7 8 8 8 8 8 9 8 8 8 8 7 7 6 5 5 5 5 4 4 5 5 4 4 4 4 6
11 10 10 10 10 11 9 9 9 9 9 8 7 6 7 7 7 7 8 8 8 9 8 8 8 8 8 7 5 5 5 6 6 6 6 6 6 5 4 4 5 6
11 11 12 10 11 9 8 6 5 5 6 5 5 6 5 5 5 6 6 7 8 7 8 8 8 8 6 5 5 5 5 5 6 6 6 6 6 7 6 5 5 6
13 10 9 8 8 6 6 4 3 4 5 3 5 4 4 5 6 5 5 6 7 7 7 7 7 7 6 5 5 5 6 5 5 6 7 7 7 7 7 6 5 6
9 7 6 6 5 6 7 7 5 3 2 3 3 3 3 3 4 4 4 4 5 6 6 5 5 6 5 5 5 6 6 6 6 6 7 7 8 8 8 6 6 6
11 9 7 8 9 9 11 12 10 9 8 7 7 4 4 3 3 3 4 4 5 5 5 5 5 6 6 6 7 7 6 6 6 6 6 7 7 8 7 6 6 6
13 13 15 15 14 12 14 13 11 10 10 11 8 6 5 4 4 3 4 5 6 6 6 7 7 6 6 6 6 6 6 6 6 6 6 7 7 7 6 6 6 6
18 16 16 16 13 13 14 14 12 11 9 6 8 9 7 6 6 4 6 7 7 7 7 8 7 6 6 7 7 6 5 5 5 6 6 6 7 7 7 6 6 7
17 13 13 15 14 11 8 9 9 10 8 7 7 6 6 5 7 8 7 7 7 8 8 7 7 6 6 7 7 5 5 5 6 7 7 6 7 7 7 7 7 7
11 12 14 13 12 12 11 7 5 7 11 8 6 5 7 9 10 10 9 9 9 8 7 7 7 7 7 7 6 6 5 6 7 7 7 7 7 7 8 8 8 8
10 12 8 10 13 15 13 10 8 6 6 8 7 11 12 14 11 10 9 8 8 8 8 8 7 7 6 6 6 7 6 7 7 7 7 7 8 8 8 8 8 7
11 11 13 13 14 14 14 14 12 12 10 11 14 14 11 8 9 9 8 9 8 8 8 6 6 5 7 10 8 6 6 6 6 6 7 7 7 8 8 8 8 8
11 12 12 13 12 12 14 14 14 12 13 13 11 9 7 7 7 8 9 9 10 9 9 7 6 6 10 10 11 12 8 6 6 7 7 7 8 8 9 9 8 6
10 11 12 11 10 9 10 8 11 11 11 9 7 6 6 6 8 9 9 8 7 8 8 6 5 8 11 11 12 12 10 8 7 7 7 7 8 8 8 8 8 6
11 11 11 12 12 11 11 12 15 13 11 10 10 10 10 10 9 8 8 7 7 7 6 5 5 7 10 12 13 12 13 11 7 8 7 7 8 8 8 8 6 6
12 12 12 13 14 16 17 15 11 12 12 11 10 10 11 11 11 12 9 8 7 7 6 5 5 9 11 12 13 11 6 3 6 6 7 8 9 9 7 7 6 5
14 14 15 14 14 14 12 11 12 11 12 12 11 11 13 12 12 11 9 9 7 6 7 6 5 8 7 5 4 4 4 5 5 6 6 7 7 8 7 6 5 4
15 14 14 14 13 10 11 12 13 15 17 13 10 9 7 6 5 5 3 4 6 7 5 4 3 5 4 4 5 4 5 5 6 5 4 4 6 6 5 3 3 4
16 17 15 16 15 15 14 15 15 17 15 8 8 6 7 7 7 7 8 8 6 6 5 4 3 5 7 8 8 7 6 5 4 2 2 3 4 4 3 3 3 4
13 15 16 15 14 14 15 14 13 10 11 9 10 9 9 9 8 7 7 6 6 6 6 5 6 8 11 11 12 14 8 3 2 2 2 2 4 3 3 3 3 4
13 14 14 14 14 14 12 12 10 8 7 7 7 7 7 7 7 6 6 6 7 7 9 9 8 11 15 15 16 17 11 5 3 2 2 4 3 3 2 3 3 4
12 13 12 13 12 11 8 7 7 7 7 7 7 7 7 7 7 6 7 6 7 8 8 9 9 8 12 17 19 17 14 8 5 5 4 4 4 2 3 3 3 3
Wind_Direction
196 192 192 188 192 188 180 184 185 185 185 183 183 187 184 185 179 181 186 187 188 189 188 195 200 205 210 210 210 216 228 237 245 246 245 246 248 249 248 245 238 237
199 190 185 187 186 186 186 186 182 187 188 186 190 184 184 180 182 186 187 190 188 193 190 196 200 207 210 210 204 213 226 233 247 238 242 240 250 253 253 254 255 253
194 190 189 189 191 191 191 190 187 189 186 190 189 185 183 186 184 186 188 189 190 196 192 196 198 203 207 209 200 207 224 230 243 241 225 240 245 247 257 263 260 255
194 190 187 190 192 189 185 182 189 188 185 183 190 191 187 185 186 185 187 187 189 192 195 198 202 204 207 212 210 219 227 233 249 249 243 240 237 244 256 261 265 267
187 185 187 188 192 188 181 184 187 186 189 188 189 188 186 185 188 187 184 187 190 192 193 197 201 207 206 212 211 225 224 237 238 228 242 255 254 250 261 258 262 271
185 182 182 185 187 189 187 186 183 179 184 184 190 186 197 193 191 186 184 190 194 197 196 200 200 203 204 209 208 218 231 241 243 238 243 252 263 259 259 252 256 258
185 186 189 189 190 187 176 175 163 158 176 188 175 194 187 188 190 188 187 193 194 197 200 200 200 203 197 203 205 216 219 231 241 238 245 253 253 260 256 247 246 252
188 186 179 177 183 163 126 111 115 176 184 186 203 202 178 179 191 190 199 196 196 199 201 203 203 203 206 198 210 217 226 221 232 240 246 251 257 259 261 257 250 254
156 160 154 151 146 125 133 149 161 174 144 184 228 208 195 187 179 193 201 202 207 204 202 204 203 208 207 205 208 215 227 234 236 239 244 252 255 260 263 261 258 258
115 108 139 166 165 157 153 158 162 170 159 163 192 192 187 181 190 209 206 215 220 213 208 208 209 213 213 209 212 214 220 230 234 231 237 244 254 262 265 260 263 264
146 171 175 175 173 169 173 171 167 163 167 177 166 162 183 174 215 200 217 219 221 216 212 215 218 218 221 219 213 210 217 230 234 235 239 244 251 255 249 255 258 260
179 185 171 156 175 181 174 170 168 162 164 148 160 178 172 180 189 198 210 219 221 219 216 218 220 220 224 231 227 212 209 222 233 238 243 248 252 252 253 248 252 256
186 163 140 166 176 163 158 168 163 155 145 151 165 172 163 181 203 206 212 216 225 223 220 216 216 217 222 230 231 221 216 224 233 236 239 244 247 252 258 252 247 248
176 118 166 173 156 142 150 173 167 151 148 129 131 154 190 199 204 208 208 203 214 218 218 216 215 216 218 223 227 230 226 228 235 241 246 245 246 250 251 253 248 248
145 155 156 138 154 155 152 140 127 114 87 114 181 206 208 202 196 205 200 198 204 209 216 217 216 217 214 210 220 226 227 236 237 242 247 252 255 256 251 246 248 249
143 155 162 162 158 157 153 135 140 134 161 202 200 213 214 187 190 207 212 208 202 205 210 214 219 220 213 208 216 227 227 229 235 244 250 256 258 260 259 251 248 248
151 164 166 164 163 152 150 146 134 143 189 209 216 211 202 210 208 202 207 210 207 201 203 210 219 223 220 212 216 226 234 239 241 245 247 250 252 253 261 267 264 254
154 157 161 155 140 116 90 96 141 175 192 213 226 211 192 208 221 220 217 214 208 200 203 204 218 232 223 216 219 223 222 234 244 247 247 248 250 251 255 261 267 261
145 152 153 143 107 110 147 182 187 175 179 184 184 182 181 190 201 214 225 220 209 189 195 203 224 245 230 224 224 224 220 219 240 242 244 252 257 257 257 256 256 254
142 140 131 120 152 171 184 192 175 174 176 179 181 177 180 183 192 203 197 201 204 195 189 195 214 243 234 231 233 239 266 296 284 287 283 278 276 277 275 272 264 261
137 130 137 158 168 183 188 182 185 186 186 186 185 178 181 187 185 191 192 184 183 188 192 194 216 238 247 271 314 295 244 222 248 251 260 268 273 277 277 276 283 268
143 144 153 165 174 180 189 194 193 193 194 187 181 184 185 166 177 182 153 223 180 193 183 187 222 140 171 198 215 222 218 223 220 225 248 280 282 280 275 246 236 239
157 158 157 164 174 182 195 204 204 201 195 179 188 185 172 169 178 189 174 193 171 185 181 171 185 130 163 167 169 185 214 204 198 200 246 273 287 289 287 263 236 223
159 158 163 173 180 187 192 194 190 183 187 181 186 182 178 174 171 178 182 175 174 201 190 181 201 171 181 187 181 195 192 184 201 222 284 295 291 265 242 249 242 220
161 165 171 176 177 177 171 171 174 166 157 162 170 172 169 164 173 182 181 173 190 200 173 180 194 194 194 195 195 195 195 193 157 155 226 257 242 236 191 230 202 193
167 172 173 170 169 162 152 138 136 153 161 164 165 168 171 181 186 184 172 176 187 184 182 194 193 199 206 209 210 208 192 177 167 155 202 228 234 212 240 203 192 180